This demonstration page uses our WeatherBlox Daily Observations layout. Learn more.

Left ArrowRight Arrow

38.88101, -77.10428

Hourly Observations for September 2, 2015

Temp ( °F °C ) Dew Point ( °F °C ) Humidity (%) Winds ( mph kmh ) Pressure ( in mb ) Visibility ( mi km ) Precip ( " mm )
12:52 am 00:52 Cloudy 79 26.1 73 22.8 82 82 N N/A 30.05 1018 10 16 N/A
1:52 am 01:52 Mostly Cloudy 80 26.7 73 22.8 79 79 N N/A 30.04 1017 10 16 N/A
2:52 am 02:52 Mostly Cloudy 79 26.1 72 22.2 79 79 N N/A 30.03 1017 10 16 N/A
3:52 am 03:52 Mostly Cloudy 78 25.6 73 22.8 85 85 N N/A 30.03 1017 10 16 N/A
4:52 am 04:52 Cloudy 77 25 72 22.2 85 85 SSW 3 6 30.03 1017 10 16 N/A
5:52 am 05:52 Cloudy 76 24.4 73 22.8 91 91 N N/A 30.03 1017 7 11 N/A
6:52 am 06:52 Cloudy 76 24.4 71 21.7 85 85 N 6 9 30.04 1017 7 11 N/A
7:52 am 07:52 Cloudy with Haze 77 25 70 21.1 79 79 N 6 9 30.06 1018 6 10 N/A
8:52 am 08:52 Cloudy 79 26.1 72 22.2 79 79 NE 3 6 30.05 1018 7 11 N/A
9:52 am 09:52 Cloudy 83 28.3 71 21.7 67 67 NNE 3 6 30.05 1018 8 13 N/A
10:52 am 10:52 Cloudy 86 30 67 19.4 53 53 NW 8 13 30.04 1017 10 16 N/A
11:52 am 11:52 Cloudy 88 31.1 66 18.9 48 48 NNW 7 11 30.04 1017 10 16 N/A
12:52 pm 12:52 Cloudy 90 32.2 66 18.9 45 45 N 6 9 30.01 1016 10 16 N/A
1:52 pm 13:52 Mostly Cloudy 92 33.3 67 19.4 44 44 N 7 11 29.99 1016 10 16 N/A
2:52 pm 14:52 Mostly Cloudy 92 33.3 65 18.3 41 41 VRB 5 7 29.96 1015 10 16 N/A
3:52 pm 15:52 Mostly Cloudy 92 33.3 65 18.3 41 41 W 9 15 29.95 1014 10 16 N/A
4:35 pm 16:35 Cloudy 91 33 66 19 44 44 WNW 6 9 29.94 1014 10 16 N/A
4:52 pm 16:52 Cloudy 91 32.8 66 18.9 44 44 W 6 9 29.95 1014 10 16 N/A
5:52 pm 17:52 Cloudy 87 30.6 68 20 53 53 W 9 15 29.94 1014 10 16 N/A
6:52 pm 18:52 Cloudy 87 30.6 67 19.4 51 51 WNW 7 11 29.93 1013 10 16 N/A
7:52 pm 19:52 Mostly Cloudy 84 28.9 68 20 59 59 N 7 11 29.93 1013 10 16 N/A
8:52 pm 20:52 Mostly Cloudy 83 28.3 68 20 61 61 SW 5 7 29.94 1014 10 16 N/A
9:52 pm 21:52 Mostly Clear 79 26.1 70 21.1 74 74 S 6 9 29.94 1014 10 16 N/A
10:52 pm 22:52 Clear 78 25.6 70 21.1 76 76 SSW 3 6 29.95 1014 10 16 N/A
11:52 pm 23:52 Clear 77 25 70 21.1 79 79 SSW 3 6 29.94 1014 10 16 N/A

Powered by AerisWeather